�������l�o���
Date,Time,MP-1(��Sv/h),MP-2(��Sv/h),MP-3(��Sv/h),MP-4(��Sv/h),MP-5(��Sv/h),MP-6(��Sv/h),MP-7(��Sv/h),MP-8(��Sv/h),����,����(m/s),���J
2016/12/31,00:00,1.095,1.825,1.191,2.083,1.434,0.565,1.035,0.960,��쐼,3.6,��
2016/12/31,00:10,1.093,1.827,1.195,2.082,1.437,0.564,1.034,0.960,��쐼,4.5,��
2016/12/31,00:20,1.093,1.828,1.191,2.084,1.434,0.566,1.034,0.959,��,5.1,��
2016/12/31,00:30,1.095,1.829,1.194,2.082,1.432,0.565,1.032,0.959,��,6.1,��
2016/12/31,00:40,1.095,1.824,1.194,2.085,1.433,0.566,1.034,0.960,��,3.9,��
2016/12/31,00:50,1.095,1.827,1.194,2.083,1.434,0.565,1.036,0.961,�쐼,3.1,��
2016/12/31,01:00,1.095,1.831,1.193,2.082,1.433,0.565,1.034,0.961,��,3.7,��
2016/12/31,01:10,1.095,1.828,1.193,2.085,1.434,0.564,1.033,0.958,��,3.9,��
2016/12/31,01:20,1.096,1.826,1.194,2.081,1.434,0.564,1.035,0.960,��,3.5,��
2016/12/31,01:30,1.094,1.829,1.195,2.083,1.434,0.565,1.035,0.961,��,4.2,��
2016/12/31,01:40,1.092,1.828,1.194,2.085,1.434,0.566,1.036,0.959,��,4.4,��
2016/12/31,01:50,1.095,1.829,1.192,2.083,1.431,0.567,1.034,0.959,��,5.0,��
2016/12/31,02:00,1.095,1.825,1.195,2.086,1.434,0.567,1.034,0.959,��,3.7,��
2016/12/31,02:10,1.093,1.831,1.194,2.083,1.431,0.567,1.034,0.958,��,3.3,��
2016/12/31,02:20,1.093,1.826,1.194,2.078,1.432,0.564,1.035,0.960,���쐼,3.2,��
2016/12/31,02:30,1.092,1.829,1.192,2.084,1.433,0.565,1.036,0.961,��,4.9,��
2016/12/31,02:40,1.093,1.827,1.195,2.083,1.433,0.566,1.035,0.960,��,6.0,��
2016/12/31,02:50,1.094,1.827,1.195,2.081,1.433,0.567,1.035,0.961,��쐼,6.0,��
2016/12/31,03:00,1.094,1.827,1.194,2.085,1.433,0.565,1.035,0.959,��,5.4,��
2016/12/31,03:10,1.095,1.830,1.192,2.085,1.433,0.564,1.035,0.959,��쐼,4.6,��
2016/12/31,03:20,1.093,1.829,1.193,2.085,1.434,0.565,1.035,0.961,��,4.2,��
2016/12/31,03:30,1.094,1.824,1.193,2.085,1.435,0.565,1.035,0.962,��쐼,4.5,��
2016/12/31,03:40,1.095,1.827,1.194,2.083,1.433,0.566,1.035,0.962,��쐼,4.1,��
2016/12/31,03:50,1.096,1.826,1.195,2.086,1.434,0.565,1.035,0.959,��쐼,4.0,��
2016/12/31,04:00,1.096,1.823,1.193,2.087,1.432,0.566,1.034,0.960,��쐼,3.2,��
2016/12/31,04:10,1.094,1.829,1.195,2.084,1.434,0.565,1.036,0.958,��쐼,2.5,��
2016/12/31,04:20,1.094,1.827,1.196,2.084,1.432,0.567,1.035,0.961,���쐼,4.4,��
2016/12/31,04:30,1.096,1.828,1.195,2.085,1.435,0.566,1.037,0.961,���쐼,5.8,��
2016/12/31,04:40,1.099,1.829,1.194,2.086,1.435,0.567,1.035,0.960,���쐼,7.1,��
2016/12/31,04:50,1.099,1.829,1.195,2.086,1.433,0.567,1.037,0.959,���쐼,7.6,��
2016/12/31,05:00,1.095,1.828,1.197,2.084,1.434,0.566,1.037,0.961,���쐼,6.1,��
2016/12/31,05:10,1.098,1.827,1.193,2.087,1.433,0.565,1.035,0.960,���쐼,6.7,��
2016/12/31,05:20,1.098,1.831,1.194,2.089,1.433,0.565,1.037,0.960,���쐼,6.9,��
2016/12/31,05:30,1.095,1.830,1.196,2.087,1.433,0.566,1.037,0.960,���쐼,5.1,��
2016/12/31,05:40,1.096,1.830,1.197,2.087,1.431,0.568,1.038,0.961,�쐼,5.3,��
2016/12/31,05:50,1.097,1.828,1.195,2.085,1.431,0.566,1.037,0.963,�쐼,4.5,��
2016/12/31,06:00,1.095,1.827,1.194,2.085,1.434,0.566,1.037,0.961,��쐼,4.4,��
2016/12/31,06:10,1.096,1.827,1.196,2.083,1.434,0.566,1.035,0.960,��쐼,4.7,��
2016/12/31,06:20,1.095,1.826,1.193,2.086,1.433,0.566,1.036,0.962,��쐼,4.5,��
2016/12/31,06:30,1.098,1.827,1.195,2.084,1.434,0.566,1.034,0.962,�쐼,4.4,��
2016/12/31,06:40,1.097,1.828,1.195,2.082,1.432,0.566,1.036,0.960,�쐼,6.1,��
2016/12/31,06:50,1.096,1.827,1.193,2.085,1.433,0.567,1.036,0.961,�쐼,7.2,��
2016/12/31,07:00,1.097,1.830,1.194,2.084,1.432,0.566,1.038,0.963,�쐼,6.1,��
2016/12/31,07:10,1.095,1.828,1.196,2.087,1.434,0.567,1.038,0.960,�쐼,4.5,��
2016/12/31,07:20,1.098,1.827,1.194,2.086,1.436,0.565,1.035,0.961,�쐼,3.9,��
2016/12/31,07:30,1.097,1.826,1.195,2.084,1.434,0.566,1.036,0.961,��쐼,5.2,��
2016/12/31,07:40,1.094,1.830,1.195,2.086,1.432,0.565,1.038,0.961,��쐼,6.1,��
2016/12/31,07:50,1.099,1.826,1.196,2.086,1.434,0.568,1.037,0.962,��쐼,6.2,��
2016/12/31,08:00,1.097,1.829,1.196,2.089,1.434,0.568,1.037,0.961,�쐼,5.9,��
2016/12/31,08:10,1.098,1.827,1.196,2.086,1.434,0.568,1.038,0.961,�쐼,5.3,��
2016/12/31,08:20,1.099,1.829,1.195,2.087,1.436,0.567,1.036,0.960,��쐼,7.1,��
2016/12/31,08:30,1.099,1.828,1.198,2.087,1.433,0.568,1.035,0.961,��쐼,6.3,��
2016/12/31,08:40,1.100,1.833,1.197,2.088,1.436,0.567,1.037,0.963,��쐼,6.6,��
2016/12/31,08:50,1.099,1.832,1.195,2.087,1.435,0.569,1.038,0.963,��쐼,7.0,��
2016/12/31,09:00,1.100,1.832,1.199,2.087,1.437,0.567,1.040,0.962,��쐼,6.3,��
2016/12/31,09:10,1.102,1.833,1.200,2.090,1.437,0.568,1.039,0.964,��쐼,6.3,��
2016/12/31,09:20,1.104,1.835,1.200,2.087,1.436,0.567,1.040,0.963,��쐼,6.0,��
2016/12/31,09:30,1.102,1.833,1.201,2.092,1.439,0.568,1.040,0.963,��쐼,5.4,��
2016/12/31,09:40,1.102,1.836,1.201,2.091,1.439,0.569,1.042,0.963,�쐼,5.1,��
2016/12/31,09:50,1.105,1.838,1.201,2.092,1.441,0.570,1.038,0.962,�쐼,6.0,��
2016/12/31,10:00,1.101,1.834,1.200,2.090,1.440,0.569,1.039,0.962,���쐼,5.7,��
2016/12/31,10:10,1.102,1.833,1.200,2.095,1.441,0.569,1.036,0.963,��,5.0,��
2016/12/31,10:20,1.102,1.834,1.201,2.093,1.440,0.571,1.037,0.962,��,5.2,��
2016/12/31,10:30,1.104,1.833,1.198,2.094,1.443,0.571,1.036,0.962,��,6.9,��
2016/12/31,10:40,1.104,1.829,1.203,2.092,1.442,0.570,1.036,0.963,���쐼,7.9,��
2016/12/31,10:50,1.107,1.827,1.203,2.093,1.440,0.570,1.036,0.964,��,7.9,��
2016/12/31,11:00,1.104,1.832,1.200,2.092,1.443,0.572,1.037,0.966,��,8.0,��
2016/12/31,11:10,1.104,1.833,1.200,2.094,1.440,0.570,1.037,0.963,��,6.3,��
2016/12/31,11:20,1.103,1.833,1.203,2.095,1.442,0.572,1.036,0.963,��,5.6,��
2016/12/31,11:30,1.106,1.837,1.204,2.094,1.442,0.571,1.035,0.963,��,4.5,��
2016/12/31,11:40,1.107,1.833,1.201,2.096,1.444,0.571,1.036,0.964,��,4.8,��
2016/12/31,11:50,1.106,1.837,1.201,2.093,1.444,0.571,1.038,0.963,���쐼,5.9,��
2016/12/31,12:00,1.109,1.837,1.202,2.095,1.440,0.571,1.038,0.966,��,6.2,��
2016/12/31,12:10,1.108,1.837,1.202,2.100,1.445,0.571,1.037,0.965,��,5.6,��
2016/12/31,12:20,1.105,1.838,1.203,2.098,1.444,0.571,1.036,0.965,��,4.7,��
2016/12/31,12:30,1.106,1.838,1.205,2.099,1.443,0.572,1.036,0.963,��,4.9,��
2016/12/31,12:40,1.106,1.838,1.205,2.096,1.445,0.571,1.038,0.965,���k��,4.8,��
2016/12/31,12:50,1.107,1.837,1.206,2.096,1.444,0.572,1.037,0.964,���k��,6.2,��
2016/12/31,13:00,1.109,1.836,1.203,2.096,1.447,0.572,1.040,0.966,��,5.9,��
2016/12/31,13:10,1.108,1.838,1.204,2.098,1.447,0.570,1.037,0.964,���k��,6.4,��
2016/12/31,13:20,1.106,1.837,1.207,2.098,1.444,0.571,1.038,0.966,���k��,5.9,��
2016/12/31,13:30,1.106,1.841,1.206,2.098,1.443,0.571,1.039,0.965,�k��,5.8,��
2016/12/31,13:40,1.108,1.836,1.204,2.095,1.442,0.572,1.038,0.965,���k��,4.7,��
2016/12/31,13:50,1.105,1.831,1.202,2.096,1.441,0.571,1.038,0.964,�k��,3.5,��
2016/12/31,14:00,1.107,1.834,1.203,2.097,1.443,0.571,1.038,0.964,���k��,3.8,��
2016/12/31,14:10,1.106,1.834,1.202,2.095,1.441,0.570,1.037,0.964,���k��,3.6,��
2016/12/31,14:20,1.104,1.833,1.204,2.098,1.442,0.571,1.038,0.964,��,2.6,��
2016/12/31,14:30,1.106,1.837,1.204,2.097,1.446,0.571,1.037,0.963,��,2.6,��
2016/12/31,14:40,1.107,1.840,1.205,2.095,1.446,0.570,1.039,0.965,���쐼,3.1,��
2016/12/31,14:50,1.107,1.840,1.204,2.096,1.441,0.571,1.040,0.965,��,3.3,��
2016/12/31,15:00,1.107,1.842,1.206,2.096,1.445,0.569,1.038,0.966,�k��,4.0,��
2016/12/31,15:10,1.108,1.835,1.203,2.094,1.444,0.570,1.038,0.962,�k��,3.1,��
2016/12/31,15:20,1.105,1.839,1.203,2.096,1.445,0.571,1.039,0.964,�k��,3.0,��
2016/12/31,15:30,1.107,1.839,1.203,2.092,1.445,0.571,1.038,0.964,��,2.6,��
2016/12/31,15:40,1.106,1.838,1.206,2.096,1.446,0.569,1.038,0.964,���쐼,3.9,��
2016/12/31,15:50,1.104,1.836,1.205,2.096,1.445,0.570,1.040,0.964,��,3.7,��
2016/12/31,16:00,1.104,1.838,1.204,2.095,1.443,0.570,1.039,0.962,��,3.9,��
2016/12/31,16:10,1.105,1.833,1.200,2.092,1.443,0.569,1.040,0.962,��,3.9,��
2016/12/31,16:20,1.104,1.836,1.205,2.091,1.441,0.569,1.038,0.963,��,4.3,��
2016/12/31,16:30,1.104,1.838,1.202,2.094,1.441,0.570,1.039,0.963,��,5.0,��
2016/12/31,16:40,1.104,1.836,1.202,2.094,1.444,0.568,1.039,0.962,��,4.5,��
2016/12/31,16:50,1.104,1.836,1.205,2.094,1.440,0.568,1.039,0.963,��,4.6,��
2016/12/31,17:00,1.104,1.836,1.204,2.090,1.444,0.570,1.038,0.962,���k��,4.1,��
2016/12/31,17:10,1.103,1.832,1.202,2.093,1.442,0.567,1.038,0.961,��,4.1,��
2016/12/31,17:20,1.103,1.837,1.200,2.092,1.442,0.569,1.038,0.963,��,5.0,��
2016/12/31,17:30,1.101,1.831,1.199,2.090,1.444,0.567,1.037,0.961,��,4.9,��
2016/12/31,17:40,1.104,1.835,1.200,2.093,1.440,0.569,1.036,0.962,��,5.5,��
2016/12/31,17:50,1.102,1.836,1.201,2.089,1.442,0.568,1.038,0.963,��,5.3,��
2016/12/31,18:00,1.104,1.836,1.201,2.091,1.443,0.568,1.037,0.962,��,5.2,��
2016/12/31,18:10,1.103,1.834,1.201,2.094,1.441,0.568,1.037,0.962,��,4.9,��
2016/12/31,18:20,1.104,1.834,1.198,2.091,1.440,0.569,1.036,0.962,��,4.6,��
2016/12/31,18:30,1.101,1.834,1.200,2.090,1.441,0.568,1.038,0.962,���k��,5.7,��
2016/12/31,18:40,1.103,1.836,1.198,2.093,1.442,0.567,1.038,0.961,���k��,6.0,��
2016/12/31,18:50,1.105,1.834,1.201,2.091,1.440,0.568,1.038,0.961,��,5.5,��
2016/12/31,19:00,1.102,1.833,1.201,2.091,1.443,0.569,1.038,0.961,��,5.8,��
2016/12/31,19:10,1.103,1.836,1.201,2.091,1.440,0.569,1.037,0.961,��,5.7,��
2016/12/31,19:20,1.102,1.834,1.199,2.093,1.440,0.570,1.036,0.962,��,6.8,��
2016/12/31,19:30,1.101,1.833,1.200,2.094,1.440,0.568,1.037,0.961,��,5.1,��
2016/12/31,19:40,1.102,1.832,1.201,2.090,1.441,0.569,1.037,0.962,���k��,7.1,��
2016/12/31,19:50,1.102,1.834,1.199,2.092,1.443,0.567,1.037,0.962,��,5.7,��
2016/12/31,20:00,1.102,1.834,1.199,2.090,1.438,0.567,1.037,0.962,��,4.8,��
2016/12/31,20:10,1.101,1.833,1.201,2.092,1.442,0.567,1.036,0.959,���k��,5.3,��
2016/12/31,20:20,1.101,1.835,1.199,2.091,1.440,0.568,1.039,0.960,���k��,5.0,��
2016/12/31,20:30,1.099,1.831,1.199,2.090,1.439,0.567,1.038,0.962,���k��,5.2,��
2016/12/31,20:40,1.101,1.835,1.198,2.092,1.442,0.567,1.037,0.962,���k��,6.3,��
2016/12/31,20:50,1.099,1.834,1.199,2.090,1.439,0.569,1.039,0.961,���k��,6.1,��
2016/12/31,21:00,1.098,1.826,1.201,2.091,1.440,0.568,1.037,0.962,��,5.9,��
2016/12/31,21:10,1.100,1.833,1.202,2.089,1.441,0.566,1.036,0.962,���k��,5.2,��
2016/12/31,21:20,1.098,1.833,1.199,2.089,1.441,0.567,1.036,0.962,���k��,2.3,��
2016/12/31,21:30,1.102,1.834,1.199,2.090,1.438,0.569,1.036,0.962,���k��,3.5,��
2016/12/31,21:40,1.099,1.835,1.196,2.090,1.440,0.567,1.036,0.961,���k��,4.1,��
2016/12/31,21:50,1.101,1.834,1.198,2.093,1.440,0.565,1.035,0.961,��,5.4,��
2016/12/31,22:00,1.100,1.836,1.196,2.090,1.440,0.567,1.036,0.961,��,5.3,��
2016/12/31,22:10,1.100,1.831,1.195,2.088,1.439,0.567,1.036,0.959,�쓌,1.2,��
2016/12/31,22:20,1.101,1.835,1.198,2.088,1.440,0.566,1.036,0.963,�k��,0.9,��
2016/12/31,22:30,1.098,1.831,1.198,2.087,1.437,0.567,1.036,0.961,��,3.1,��
2016/12/31,22:40,1.100,1.832,1.198,2.090,1.440,0.568,1.035,0.961,��,5.0,��
2016/12/31,22:50,1.100,1.835,1.199,2.090,1.439,0.568,1.036,0.962,��,6.1,��
2016/12/31,23:00,1.100,1.835,1.198,2.089,1.439,0.566,1.037,0.963,���k��,6.7,��
2016/12/31,23:10,1.100,1.832,1.198,2.090,1.436,0.567,1.038,0.960,��,6.4,��
2016/12/31,23:20,1.099,1.835,1.198,2.090,1.440,0.567,1.038,0.962,��,6.0,��
2016/12/31,23:30,1.100,1.831,1.200,2.092,1.439,0.567,1.040,0.961,���k��,5.0,��
2016/12/31,23:40,1.100,1.833,1.198,2.093,1.440,0.566,1.037,0.961,���k��,5.0,��
2016/12/31,23:50,1.101,1.834,1.200,2.094,1.439,0.570,1.039,0.963,���k��,5.1,��
